Mississagi — CFG8050 — position and weather

sailwx.info

Track history (hours):
 
Tides and Currents Weather Stations Pressure Air Temp Water Temp Dewpoint Dewpoint Depression Visibility Wind Speed Wind Dir Waves Ship Positions

Mississagi

Last reported at 2014-Sep-01 13:34 UTC. Time now 2014-Sep-01 14:12 UTC.
Position N 45°53' W 085°31'.

Length 189 m; draft 7.2 m.

Type: Cargo ship. MMSI: 316004940.

Date/timePositionNaut miles runAvg speedWind from/ knotsBaromVisibWave heightAir tempDewpointWater temp
2014-Sep-01 13:34N 45°53' W 085°31'1110.5
2014-Sep-01 12:34N 45°54' W 085°46'6 5.6
2014-Sep-01 11:33N 45°58' W 085°52'0 0.0
2014-Sep-01 10:33N 45°58' W 085°52'0 0.0
2014-Sep-01 09:33N 45°58' W 085°52'0 0.0
2014-Sep-01 08:34N 45°58' W 085°52'0 0.0
2014-Sep-01 07:34N 45°58' W 085°52'0 0.0
2014-Sep-01 06:33N 45°58' W 085°52'0 0.0
2014-Sep-01 05:34N 45°58' W 085°52'0 0.0
2014-Sep-01 04:33N 45°58' W 085°52'2 1.5
2014-Sep-01 03:34N 45°57' W 085°53'1111.0
2014-Sep-01 02:33N 45°46' W 085°57'1212.4
2014-Sep-01 01:33N 45°35' W 086°04'1212.3
2014-Sep-01 00:33N 45°23' W 086°09'1212.2
2014-Aug-31 23:33N 45°11' W 086°14'1212.3
2014-Aug-31 22:33N 44°59' W 086°19'  
2014-Aug-29 11:33N 45°00' W 085°58'1111.1
2014-Aug-29 10:33N 45°09' W 085°49'1111.3
2014-Aug-29 09:33N 45°19' W 085°40'1111.3
2014-Aug-29 08:33N 45°28' W 085°31'1111.5
2014-Aug-29 07:33N 45°37' W 085°21'1111.4
2014-Aug-29 06:33N 45°45' W 085°10'9 8.7
2014-Aug-29 05:33N 45°50' W 084°59'1212.0
2014-Aug-29 04:33N 45°48' W 084°42'1211.7
2014-Aug-29 03:33N 45°42' W 084°28'1211.5
2014-Aug-29 02:33N 45°40' W 084°11'1211.9
2014-Aug-29 01:33N 45°35' W 083°56'  
2014-Aug-26 12:12N 45°41' W 083°33'711.4
2014-Aug-26 11:33N 45°47' W 083°41'1111.3
2014-Aug-26 10:33N 45°55' W 083°52'4 4.1
2014-Aug-26 09:33N 45°59' W 083°53'0 0.0
2014-Aug-26 08:33N 45°59' W 083°53'0 0.0
2014-Aug-26 06:33N 45°59' W 083°53'0 0.0
2014-Aug-26 05:25N 45°59' W 083°53'0 0.0
2014-Aug-26 04:33N 45°59' W 083°53'0 0.0
2014-Aug-26 03:31N 45°59' W 083°53'  
2014-Aug-23 21:32N 45°37' W 084°05'1111.7
2014-Aug-23 20:33N 45°41' W 084°20'1211.6
2014-Aug-23 19:33N 45°46' W 084°36'  
Track history (hours):
 
Tides and Currents Weather Stations Pressure Air Temp Water Temp Dewpoint Dewpoint Depression Visibility Wind Speed Wind Dir Waves Ship Positions

Mississagi

Last reported at 2014-Sep-01 13:34 UTC. Time now 2014-Sep-01 14:12 UTC.
Position N 45°53' W 085°31'.

Length 189 m; draft 7.2 m.

Type: Cargo ship. MMSI: 316004940.

Date/timePositionNaut miles runAvg speedWind from/ knotsBaromVisibWave heightAir tempDewpointWater temp
2014-Sep-01 13:34N 45°53' W 085°31'1110.5
2014-Sep-01 12:34N 45°54' W 085°46'6 5.6
2014-Sep-01 11:33N 45°58' W 085°52'0 0.0
2014-Sep-01 10:33N 45°58' W 085°52'0 0.0
2014-Sep-01 09:33N 45°58' W 085°52'0 0.0
2014-Sep-01 08:34N 45°58' W 085°52'0 0.0
2014-Sep-01 07:34N 45°58' W 085°52'0 0.0
2014-Sep-01 06:33N 45°58' W 085°52'0 0.0
2014-Sep-01 05:34N 45°58' W 085°52'0 0.0
2014-Sep-01 04:33N 45°58' W 085°52'2 1.5
2014-Sep-01 03:34N 45°57' W 085°53'1111.0
2014-Sep-01 02:33N 45°46' W 085°57'1212.4
2014-Sep-01 01:33N 45°35' W 086°04'1212.3
2014-Sep-01 00:33N 45°23' W 086°09'1212.2
2014-Aug-31 23:33N 45°11' W 086°14'1212.3
2014-Aug-31 22:33N 44°59' W 086°19'  
2014-Aug-29 11:33N 45°00' W 085°58'1111.1
2014-Aug-29 10:33N 45°09' W 085°49'1111.3
2014-Aug-29 09:33N 45°19' W 085°40'1111.3
2014-Aug-29 08:33N 45°28' W 085°31'1111.5
2014-Aug-29 07:33N 45°37' W 085°21'1111.4
2014-Aug-29 06:33N 45°45' W 085°10'9 8.7
2014-Aug-29 05:33N 45°50' W 084°59'1212.0
2014-Aug-29 04:33N 45°48' W 084°42'1211.7
2014-Aug-29 03:33N 45°42' W 084°28'1211.5
2014-Aug-29 02:33N 45°40' W 084°11'1211.9
2014-Aug-29 01:33N 45°35' W 083°56'  
2014-Aug-26 12:12N 45°41' W 083°33'711.4
2014-Aug-26 11:33N 45°47' W 083°41'1111.3
2014-Aug-26 10:33N 45°55' W 083°52'4 4.1
2014-Aug-26 09:33N 45°59' W 083°53'0 0.0
2014-Aug-26 08:33N 45°59' W 083°53'0 0.0
2014-Aug-26 06:33N 45°59' W 083°53'0 0.0
2014-Aug-26 05:25N 45°59' W 083°53'0 0.0
2014-Aug-26 04:33N 45°59' W 083°53'0 0.0
2014-Aug-26 03:31N 45°59' W 083°53'  
2014-Aug-23 21:32N 45°37' W 084°05'1111.7
2014-Aug-23 20:33N 45°41' W 084°20'1211.6
2014-Aug-23 19:33N 45°46' W 084°36'  

Dump ship's entire track history